Morris, IL

6:22 PM CDT on May 23, 2018 (GMT -0500)
Morris

Weather History for KC09 - September, 2012

Change the Weather History Date:

Saturday, September 15, 2012

  Actual Average (KARR) Record (KARR)
Temperature  
Mean Temperature 64 °F -  
Max Temperature 81 °F 74 °F 87 °F (2017)
Min Temperature 47 °F 49 °F 32 °F (2007)
Degree Days  
Heating Degree Days 1    
Growing Degree Days 14 (Base 50)    
Moisture  
Dew Point 46 °F    
Average Humidity 60    
Maximum Humidity 94    
Minimum Humidity 23    
Precipitation  
Precipitation 0.00 in - - ()
Sea Level Pressure  
Sea Level Pressure 30.27 in    
Wind  
Wind Speed 3 mph (West)    
Max Wind Speed 8 mph    
Max Gust Speed -    
Visibility 10 miles    
Events      
Averages and records for this station are not official NWS values.
T = Trace of Precipitation, MM = Missing Value Source: NWS Daily Summary

Daily Weather History Graph

Daily Weather History Graph

Search for Another Location

Airport or City:

Astronomy

Sep. 15, 2012 Rise Set
Actual Time 6:34 AM CDT 7:02 PM CDT
Civil Twilight 6:06 AM CDT 7:29 PM CDT
Nautical Twilight 5:34 AM CDT 8:02 PM CDT
Astronomical Twilight 5:00 AM CDT 8:35 PM CDT
Moon 6:05 AM CDT (9/15) 6:31 PM CDT (9/15)
Length of Visible Light 13h 23m
Length of Day
12h 27m
Waning Crescent, 0% of the Moon is Illuminated
Sep 15
Waning Crescent
Sep 15
New
Sep 22
First Quarter
Sep 29
Full
Oct 8
Last Quarter

Hourly Weather History & Observations

Time (CDT) Temp. Dew Point Humidity Pressure Visibility Wind Dir Wind Speed Gust Speed Precip Events Conditions
12:15 AM 55.4 °F 46.6 °F 72% 30.31 in 10.0 mi West 3.5 mph - N/A   Clear
12:35 AM 54.9 °F 46.6 °F 74% 30.30 in 10.0 mi West 3.5 mph - N/A   Clear
12:55 AM 54.5 °F 46.4 °F 74% 30.30 in 10.0 mi WSW 3.5 mph - N/A   Clear
1:15 AM 54.5 °F 46.6 °F 75% 30.30 in 10.0 mi WSW 3.5 mph - N/A   Clear
1:35 AM 53.8 °F 46.6 °F 77% 30.30 in 10.0 mi WSW 4.6 mph - N/A   Clear
1:55 AM 52.2 °F 46.0 °F 80% 30.30 in 10.0 mi WSW 3.5 mph - N/A   Clear
2:15 AM 53.6 °F 46.4 °F 77% 30.29 in 10.0 mi West 3.5 mph - N/A   Clear
2:35 AM 52.0 °F 46.6 °F 82% 30.29 in 10.0 mi Calm Calm - N/A   Clear
2:55 AM 50.5 °F 46.6 °F 86% 30.29 in 10.0 mi Calm Calm - N/A   Clear
3:15 AM 50.9 °F 46.0 °F 83% 30.29 in 10.0 mi Calm Calm - N/A   Clear
3:35 AM 50.0 °F 45.5 °F 85% 30.29 in 10.0 mi Calm Calm - N/A   Clear
3:55 AM 51.3 °F 46.4 °F 83% 30.29 in 10.0 mi Calm Calm - N/A   Clear
4:15 AM 48.2 °F 46.2 °F 93% 30.29 in 10.0 mi SW 4.6 mph - N/A   Clear
4:35 AM 48.0 °F 46.4 °F 94% 30.30 in 10.0 mi SW 5.8 mph - N/A   Clear
4:55 AM 47.7 °F 46.0 °F 94% 30.30 in 10.0 mi West 3.5 mph - N/A   Clear
5:15 AM 48.4 °F 46.8 °F 94% 30.30 in 10.0 mi Calm Calm - N/A   Clear
5:35 AM 49.5 °F 46.8 °F 90% 30.30 in 10.0 mi Calm Calm - N/A   Clear
5:55 AM 49.5 °F 46.4 °F 89% 30.30 in 10.0 mi Calm Calm - N/A   Clear
6:35 AM 47.3 °F 45.3 °F 93% 30.31 in 10.0 mi Calm Calm - N/A   Clear
6:55 AM 48.6 °F 46.2 °F 92% 30.31 in 10.0 mi SSW 3.5 mph - N/A   Clear
7:15 AM 50.2 °F 48.0 °F 92% 30.31 in 10.0 mi Calm Calm - N/A   Clear
7:35 AM 51.6 °F 49.5 °F 92% 30.31 in 10.0 mi Calm Calm - N/A   Clear
7:55 AM 53.6 °F 50.7 °F 90% 30.32 in 10.0 mi SW 3.5 mph - N/A   Clear
8:15 AM 54.7 °F 51.1 °F 88% 30.32 in 10.0 mi Calm Calm - N/A   Clear
8:35 AM 55.6 °F 50.0 °F 81% 30.31 in 10.0 mi Calm Calm - N/A   Clear
8:55 AM 58.3 °F 50.5 °F 75% 30.31 in 10.0 mi Calm Calm - N/A   Clear
9:15 AM 59.9 °F 50.4 °F 71% 30.31 in 10.0 mi Calm Calm - N/A   Clear
9:35 AM 62.6 °F 51.6 °F 67% 30.30 in 10.0 mi Calm Calm - N/A   Clear
9:55 AM 64.6 °F 50.9 °F 61% 30.30 in 10.0 mi Calm Calm - N/A   Clear
10:15 AM 67.1 °F 51.6 °F 57% 30.30 in 10.0 mi Calm Calm - N/A   Clear
10:35 AM 72.5 °F 47.8 °F 42% 30.29 in 10.0 mi North 4.6 mph - N/A   Clear
10:55 AM 73.9 °F 45.5 °F 36% 30.29 in 10.0 mi WNW 6.9 mph - N/A   Clear
11:15 AM 75.2 °F 46.2 °F 36% 30.28 in 10.0 mi WNW 8.1 mph - N/A   Clear
11:35 AM 75.4 °F 45.7 °F 35% 30.28 in 10.0 mi West 5.8 mph - N/A   Clear
11:55 AM 76.3 °F 44.8 °F 33% 30.27 in 10.0 mi NW 6.9 mph - N/A   Clear
12:15 PM 76.8 °F 45.7 °F 33% 30.26 in 10.0 mi North 3.5 mph - N/A   Clear
12:35 PM 77.2 °F 44.2 °F 31% 30.25 in 10.0 mi NW 4.6 mph - N/A   Clear
12:55 PM 78.4 °F 43.5 °F 29% 30.24 in 10.0 mi NW 3.5 mph - N/A   Clear
1:15 PM 78.6 °F 43.3 °F 29% 30.23 in 10.0 mi ENE 4.6 mph - N/A   Clear
1:35 PM 80.6 °F 42.8 °F 26% 30.23 in 10.0 mi North 5.8 mph - N/A   Clear
1:55 PM 78.4 °F 43.3 °F 29% 30.21 in 10.0 mi NNW 4.6 mph - N/A   Clear
2:15 PM 79.2 °F 38.1 °F 23% 30.20 in 10.0 mi West 3.5 mph - N/A   Clear
2:35 PM 80.1 °F 41.0 °F 25% 30.19 in 10.0 mi NW 4.6 mph - N/A   Clear
2:55 PM 79.9 °F 39.4 °F 23% 30.19 in 10.0 mi Calm Calm - N/A   Clear
3:15 PM 79.5 °F 40.3 °F 25% 30.18 in 10.0 mi Calm Calm - N/A   Clear
3:35 PM 81.0 °F 41.2 °F 24% 30.18 in 10.0 mi Calm Calm - N/A   Scattered Clouds
3:55 PM 80.2 °F 39.7 °F 24% 30.18 in 10.0 mi NW 4.6 mph - N/A   Scattered Clouds
4:15 PM 78.3 °F 39.7 °F 25% 30.17 in 10.0 mi WSW 5.8 mph - N/A   Clear
4:35 PM 78.4 °F 41.5 °F 27% 30.17 in 10.0 mi Calm Calm - N/A   Clear
4:55 PM 79.0 °F 41.4 °F 26% 30.16 in 10.0 mi Calm Calm - N/A   Clear
5:15 PM 79.0 °F 39.7 °F 25% 30.16 in 10.0 mi Calm Calm - N/A   Clear
5:35 PM 76.5 °F 43.2 °F 30% 30.16 in 10.0 mi Calm Calm - N/A   Clear